334  
ASUS43 KFSD 280210  
RWRFSD  
 
WEATHER ROUNDUP FOR SE SOUTH DAKOTA/SW MINNESOTA/NW IOWA  
NATIONAL WEATHER SERVICE SIOUX FALLS SD  
900 PM CDT MON MAR 27 2017  
 
NOTE: "FAIR" INDICATES FEW OR NO CLOUDS BELOW 12,000 FEET WITH NO  
SIGNIFICANT WEATHER AND OR S TO VISIBILITY
.  
 
 
SDZ038>040-050-052>070-280300-  
SOUTHEAST SOUTH DAKOTA  
 
CITY SKY/WX TMP DP RH WIND PRES REMARKS
 
BROOKINGS MOCLDY 50 37 61 E9 29.97R  
CHAMBERLAIN CLOUDY 54 37 52 E8 29.93R  
HURON MOCLDY 48 37 65 E6 29.95R  
MADISON CLOUDY 46 41 81 E5 29.96R  
MITCHELL CLEAR 52 35 52 S6 29.95R  
SIOUX FALLS PTCLDY 50 39 66 SE9 29.98R  
WINNER CLOUDY 55 36 48 E10 29.91R  
YANKTON CLEAR 46 37 71 E7 29.96R  

 
 
MNZ071-072-080-081-089-090-097-098-280300-  
SOUTHWEST MINNESOTA  
 
CITY SKY/WX TMP DP RH WIND PRES REMARKS
 
FAIRMONT CLEAR 43 38 82 S3 29.99R  
JACKSON CLEAR 43 36 75 CALM 29.99R  
LUVERNE PTCLDY 41 36 81 S3 29.99R  
MARSHALL CLEAR 46 38 73 CALM 29.99R  
MONTEVIDEO PTCLDY 46 34 61 SE3 30.01R  
PIPESTONE CLEAR 46 36 66 CALM 29.97R  
REDWOOD FALLS CLEAR 52 32 46 SE5 29.98R  
TRACY CLEAR 48 39 71 S3 29.99R  
WINDOM CLEAR 45 39 81 CALM 29.99R  
WORTHINGTON CLEAR 46 38 73 S6 29.99R  

 
 
IAZ001>003-012>014-020>022-031-032-NEZ013-014-SDZ071-280300-  
NORTHWEST IOWA  
 
CITY SKY/WX TMP DP RH WIND PRES REMARKS
 
CHEROKEE CLOUDY 47 40 76 NE3 30.00R  
DENISON CLOUDY 46 39 76 NE5 30.00S  
ESTHERVILLE CLEAR 41 40 96 S5 29.98R  
LE MARS CLEAR 46 39 76 E6 30.00R  
ORANGE CITY CLEAR 43 39 87 SE3 29.99S  
SHELDON PTCLDY 43 37 81 SE6 29.98S  
SIOUX CITY CLEAR 46 40 79 E9 29.98R  
SPENCER CLOUDY 48 40 73 N3 30.00R  
STORM LAKE CLOUDY 46 41 81 NE3 29.99R  

 
 
ABBREVIATIONS USED IN REMARKS  
TC - TEMPERATURE IN CELSIUS  
WCI - WIND CHILL INDEX  
HX - HEAT INDEX  
VSB - VISIBILITY  
 
 
 
CLICK HERE TO GO TO PREVIOUS BULLETINS.

The Nexlab SD Page
The Nexlab IA Page
The Nexlab MN Page
The Nexlab NE Page Main Text Page